User: anonymous   Login
Location: Newark
(37.8444°N, 127.0614°E)
Time: 23:08:53
(UTC+00:00)
Language:

CAS-4B - Orbit

View from above orbital plane
View from above orbital plane
View from above satellite
View from above satellite

Ground track
Ground track

The orbit data is extracted from the following two-line orbital elements,

1 42759U 17034B   20023.61605019 -.00000010  00000-0  12898-4 0  9991
2 42759  43.0187 108.2724 0011652 198.6583 301.2420 15.09725219143923
Epoch (UTC): 23 January 2020 14:47:06
Eccentricity: 0.0011652
inclination: 43.0187°
perigee height: 529 km
apogee height: 545 km
right ascension of ascending node: 108.2724°
argument of perigee: 198.6583°
revolutions per day: 15.09725219
mean anomaly at epoch: 301.2420°
orbit number at epoch: 14392

The dashed part of the orbit path shows where the satellite is in the earth's shadow,  

DLR